Location: Arlington
(40.6323°N, 74.1651°W)
Time: 21:07:13
(UTC+00:00)

Okean-O - Pass Details

Date: 22 November 2019
Orbit: 639 x 641 km, 98.2° (Epoch: 06 December)

Event Time Altitude Azimuth Distance (km) Brightness Sun altitude
Rises 23:02:31 0° 176° (S) 2,930 6.1 -16.6°
Reaches altitude 10° 23:04:45 10° 180° (S) 2,025 5.3 -17.0°
Maximum altitude 23:09:05 56° 259° (W) 762 3.3 -17.8°
Drops below altitude 10° 23:13:27 10° 338° (NNW) 2,039 5.3 -18.7°
Sets 23:15:42 0° 343° (NNW) 2,953 6.1 -19.1°
